Time,TemperatureF,DewpointF,PressureIn,WindDirection,WindDirectionDegrees,WindSpeedMPH,WindSpeedGustMPH,Humidity,HourlyPrecipIn,Conditions,Clouds,dailyrainin,SoftwareType,DateUTC
2013-11-13 00:02:00,21.0,18.0,30.65,NNW,340,0.0,8.0,87,-99.99,,,-99.99,,2013-11-13 07:02:00,
2013-11-13 00:07:00,21.0,18.0,30.65,NNW,330,5.0,8.0,88,-99.99,,,-99.99,,2013-11-13 07:07:00,
2013-11-13 00:17:00,21.0,18.0,30.65,North,350,9.0,9.0,88,-99.99,,,-99.99,,2013-11-13 07:17:00,
2013-11-13 00:22:00,21.0,18.0,30.65,NNW,330,7.0,8.0,88,-99.99,,,-99.99,,2013-11-13 07:22:00,
2013-11-13 00:27:00,20.0,17.0,30.65,WNW,300,5.0,8.0,88,-99.99,,,-99.99,,2013-11-13 07:27:00,
2013-11-13 00:37:00,20.0,18.0,30.65,NW,310,9.0,9.0,89,-99.99,,,-99.99,,2013-11-13 07:37:00,
2013-11-13 00:47:00,20.0,17.0,30.65,NNW,340,5.0,6.0,88,-99.99,,,-99.99,,2013-11-13 07:47:00,
2013-11-13 00:52:00,20.0,17.0,30.65,NW,310,8.0,10.0,88,-99.99,,,-99.99,,2013-11-13 07:52:00,
2013-11-13 00:57:00,20.0,18.0,30.65,NNW,330,9.0,11.0,89,-99.99,,,-99.99,,2013-11-13 07:57:00,
2013-11-13 01:02:00,21.0,18.0,30.64,North,350,6.0,10.0,89,-99.99,,,-99.99,,2013-11-13 08:02:00,
2013-11-13 01:07:00,21.0,18.0,30.64,WNW,300,6.0,8.0,88,-99.99,,,-99.99,,2013-11-13 08:07:00,
2013-11-13 01:17:00,20.0,18.0,30.64,NNW,340,8.0,11.0,89,-99.99,,,-99.99,,2013-11-13 08:17:00,
2013-11-13 01:27:00,20.0,17.0,30.64,NNW,330,10.0,10.0,88,-99.99,,,-99.99,,2013-11-13 08:27:00,
2013-11-13 01:32:00,20.0,17.0,30.64,North,10,4.0,11.0,89,-99.99,,,-99.99,,2013-11-13 08:32:00,
2013-11-13 01:42:00,19.0,17.0,30.64,NNE,30,5.0,7.0,90,-99.99,,,-99.99,,2013-11-13 08:42:00,
2013-11-13 01:47:00,19.0,16.0,30.64,North,0,5.0,8.0,90,-99.99,,,-99.99,,2013-11-13 08:47:00,
2013-11-13 01:57:00,18.0,16.0,30.64,North,0,7.0,10.0,92,-99.99,,,-99.99,,2013-11-13 08:57:00,
2013-11-13 02:02:00,19.0,17.0,30.64,North,10,5.0,10.0,92,-99.99,,,-99.99,,2013-11-13 09:02:00,
2013-11-13 02:12:00,19.0,16.0,30.64,North,0,7.0,8.0,91,-99.99,,,-99.99,,2013-11-13 09:12:00,
2013-11-13 02:22:00,19.0,16.0,30.63,North,0,6.0,7.0,91,-99.99,,,-99.99,,2013-11-13 09:22:00,
2013-11-13 02:32:00,19.0,17.0,30.63,NW,320,10.0,10.0,91,-99.99,,,-99.99,,2013-11-13 09:32:00,
2013-11-13 02:37:00,19.0,17.0,30.63,North,350,8.0,10.0,90,-99.99,,,-99.99,,2013-11-13 09:37:00,
2013-11-13 02:47:00,19.0,16.0,30.63,NNW,340,7.0,7.0,89,-99.99,,,-99.99,,2013-11-13 09:47:00,
2013-11-13 02:52:00,19.0,16.0,30.63,North,350,0.0,9.0,90,-99.99,,,-99.99,,2013-11-13 09:52:00,
2013-11-13 03:02:00,18.0,16.0,30.63,NW,320,0.0,0.0,90,-99.99,,,-99.99,,2013-11-13 10:02:00,
2013-11-13 03:07:00,18.0,16.0,30.62,NNW,330,6.0,7.0,91,-99.99,,,-99.99,,2013-11-13 10:07:00,
2013-11-13 03:12:00,18.0,16.0,30.62,NNW,330,9.0,9.0,91,-99.99,,,-99.99,,2013-11-13 10:12:00,
2013-11-13 03:17:00,18.0,16.0,30.62,WNW,300,6.0,9.0,91,-99.99,,,-99.99,,2013-11-13 10:17:00,
2013-11-13 03:27:00,19.0,16.0,30.61,NNW,330,8.0,9.0,91,-99.99,,,-99.99,,2013-11-13 10:27:00,
2013-11-13 03:32:00,18.0,16.0,30.61,NNW,330,6.0,10.0,91,-99.99,,,-99.99,,2013-11-13 10:32:00,
2013-11-13 03:37:00,18.0,16.0,30.61,NNW,340,8.0,8.0,91,-99.99,,,-99.99,,2013-11-13 10:37:00,
2013-11-13 03:47:00,18.0,16.0,30.61,NW,320,4.0,7.0,91,-99.99,,,-99.99,,2013-11-13 10:47:00,
2013-11-13 03:57:00,18.0,15.0,30.61,NNE,20,8.0,9.0,91,-99.99,,,-99.99,,2013-11-13 10:57:00,
2013-11-13 04:02:00,17.0,15.0,30.61,North,0,8.0,10.0,91,-99.99,,,-99.99,,2013-11-13 11:02:00,
2013-11-13 04:07:00,17.0,15.0,30.61,North,0,10.0,10.0,92,-99.99,,,-99.99,,2013-11-13 11:07:00,
2013-11-13 04:17:00,17.0,15.0,30.60,North,350,10.0,10.0,93,-99.99,,,-99.99,,2013-11-13 11:17:00,
2013-11-13 04:22:00,18.0,16.0,30.60,NNE,30,6.0,10.0,93,-99.99,,,-99.99,,2013-11-13 11:22:00,
2013-11-13 04:27:00,18.0,16.0,30.60,North,0,5.0,8.0,92,-99.99,,,-99.99,,2013-11-13 11:27:00,
2013-11-13 04:32:00,17.0,15.0,30.60,NNE,20,5.0,6.0,92,-99.99,,,-99.99,,2013-11-13 11:32:00,
2013-11-13 04:37:00,17.0,15.0,30.60,NW,320,6.0,8.0,92,-99.99,,,-99.99,,2013-11-13 11:37:00,
2013-11-13 04:42:00,17.0,15.0,30.60,WNW,300,3.0,6.0,92,-99.99,,,-99.99,,2013-11-13 11:42:00,
2013-11-13 04:52:00,17.0,15.0,30.60,WNW,300,0.0,0.0,92,-99.99,,,-99.99,,2013-11-13 11:52:00,
2013-11-13 04:57:00,17.0,15.0,30.60,NNW,330,5.0,7.0,93,-99.99,,,-99.99,,2013-11-13 11:57:00,
2013-11-13 05:07:00,17.0,15.0,30.60,NNW,330,7.0,9.0,93,-99.99,,,-99.99,,2013-11-13 12:07:00,
2013-11-13 05:12:00,17.0,15.0,30.60,NW,320,8.0,9.0,93,-99.99,,,-99.99,,2013-11-13 12:12:00,
2013-11-13 05:22:00,16.0,15.0,30.59,North,0,0.0,7.0,93,-99.99,,,-99.99,,2013-11-13 12:22:00,
2013-11-13 05:32:00,16.0,15.0,30.59,NNW,340,9.0,9.0,93,-99.99,,,-99.99,,2013-11-13 12:32:00,
2013-11-13 05:37:00,17.0,15.0,30.58,NNW,340,7.0,8.0,93,-99.99,,,-99.99,,2013-11-13 12:37:00,
2013-11-13 05:42:00,17.0,15.0,30.58,NNW,330,6.0,8.0,93,-99.99,,,-99.99,,2013-11-13 12:42:00,
2013-11-13 05:47:00,17.0,15.0,30.58,North,10,5.0,7.0,92,-99.99,,,-99.99,,2013-11-13 12:47:00,
2013-11-13 05:52:00,16.0,14.0,30.59,North,10,7.0,7.0,93,-99.99,,,-99.99,,2013-11-13 12:52:00,
2013-11-13 06:02:00,16.0,14.0,30.59,North,10,6.0,7.0,93,-99.99,,,-99.99,,2013-11-13 13:02:00,
2013-11-13 06:07:00,16.0,14.0,30.58,NNW,340,6.0,8.0,93,-99.99,,,-99.99,,2013-11-13 13:07:00,
2013-11-13 06:12:00,16.0,14.0,30.58,NW,310,7.0,9.0,94,-99.99,,,-99.99,,2013-11-13 13:12:00,
2013-11-13 06:17:00,16.0,15.0,30.58,NNE,20,0.0,8.0,94,-99.99,,,-99.99,,2013-11-13 13:17:00,
2013-11-13 06:22:00,16.0,15.0,30.58,NNE,30,0.0,4.0,93,-99.99,,,-99.99,,2013-11-13 13:22:00,
2013-11-13 06:27:00,16.0,14.0,30.58,North,0,5.0,6.0,93,-99.99,,,-99.99,,2013-11-13 13:27:00,
2013-11-13 06:32:00,16.0,14.0,30.58,NW,320,7.0,7.0,93,-99.99,,,-99.99,,2013-11-13 13:32:00,
2013-11-13 06:37:00,16.0,14.0,30.58,North,0,7.0,9.0,94,-99.99,,,-99.99,,2013-11-13 13:37:00,
2013-11-13 06:47:00,16.0,15.0,30.58,NNE,20,4.0,9.0,94,-99.99,,,-99.99,,2013-11-13 13:47:00,
2013-11-13 06:57:00,16.0,14.0,30.58,NNW,340,3.0,8.0,93,-99.99,,,-99.99,,2013-11-13 13:57:00,
2013-11-13 07:07:00,16.0,14.0,30.58,NNW,340,8.0,9.0,94,-99.99,,,-99.99,,2013-11-13 14:07:00,
2013-11-13 07:17:00,17.0,15.0,30.58,North,350,7.0,9.0,94,-99.99,,,-99.99,,2013-11-13 14:17:00,
2013-11-13 07:27:00,17.0,15.0,30.58,North,0,6.0,6.0,93,-99.99,,,-99.99,,2013-11-13 14:27:00,
2013-11-13 07:32:00,17.0,15.0,30.58,NNE,20,0.0,6.0,93,-99.99,,,-99.99,,2013-11-13 14:32:00,
2013-11-13 07:37:00,17.0,15.0,30.58,North,0,0.0,6.0,93,-99.99,,,-99.99,,2013-11-13 14:37:00,
2013-11-13 07:42:00,18.0,16.0,30.58,North,10,5.0,6.0,94,-99.99,,,-99.99,,2013-11-13 14:42:00,
2013-11-13 07:52:00,19.0,17.0,30.58,North,0,0.0,5.0,94,-99.99,,,-99.99,,2013-11-13 14:52:00,
2013-11-13 07:57:00,19.0,18.0,30.58,North,0,0.0,0.0,94,-99.99,,,-99.99,,2013-11-13 14:57:00,
2013-11-13 08:07:00,20.0,19.0,30.58,North,0,0.0,0.0,94,-99.99,,,-99.99,,2013-11-13 15:07:00,
2013-11-13 08:12:00,21.0,19.0,30.58,North,0,0.0,0.0,93,-99.99,,,-99.99,,2013-11-13 15:12:00,
2013-11-13 08:17:00,22.0,20.0,30.58,North,0,0.0,0.0,93,-99.99,,,-99.99,,2013-11-13 15:17:00,
2013-11-13 08:22:00,22.0,20.0,30.57,NNW,340,0.0,2.0,93,-99.99,,,-99.99,,2013-11-13 15:22:00,
2013-11-13 08:32:00,23.0,21.0,30.57,NNW,340,0.0,2.0,92,-99.99,,,-99.99,,2013-11-13 15:32:00,
2013-11-13 08:37:00,24.0,22.0,30.58,NNW,340,0.0,0.0,91,-99.99,,,-99.99,,2013-11-13 15:37:00,
2013-11-13 08:42:00,25.0,22.0,30.57,NNW,340,0.0,0.0,91,-99.99,,,-99.99,,2013-11-13 15:42:00,
2013-11-13 08:47:00,25.0,23.0,30.57,NNW,340,0.0,0.0,90,-99.99,,,-99.99,,2013-11-13 15:47:00,
2013-11-13 08:52:00,26.0,23.0,30.57,NNW,340,0.0,0.0,89,-99.99,,,-99.99,,2013-11-13 15:52:00,
2013-11-13 08:57:00,26.0,23.0,30.57,NNW,340,0.0,0.0,86,-99.99,,,-99.99,,2013-11-13 15:57:00,
2013-11-13 09:07:00,28.0,23.0,30.56,NNW,340,0.0,0.0,82,-99.99,,,-99.99,,2013-11-13 16:07:00,
2013-11-13 09:12:00,28.0,22.0,30.56,NNW,340,0.0,0.0,78,-99.99,,,-99.99,,2013-11-13 16:12:00,
2013-11-13 09:17:00,29.0,22.0,30.56,NNW,340,0.0,0.0,76,-99.99,,,-99.99,,2013-11-13 16:17:00,
2013-11-13 09:27:00,29.0,22.0,30.55,NNW,340,0.0,0.0,73,-99.99,,,-99.99,,2013-11-13 16:27:00,
2013-11-13 09:37:00,30.0,23.0,30.55,SSE,150,0.0,4.0,72,-99.99,,,-99.99,,2013-11-13 16:37:00,
2013-11-13 09:42:00,31.0,22.0,30.55,SSE,150,0.0,0.0,71,-99.99,,,-99.99,,2013-11-13 16:42:00,
2013-11-13 09:47:00,31.0,22.0,30.55,SSE,150,0.0,0.0,69,-99.99,,,-99.99,,2013-11-13 16:47:00,
2013-11-13 09:52:00,32.0,22.0,30.55,SSE,150,0.0,0.0,66,-99.99,,,-99.99,,2013-11-13 16:52:00,
2013-11-13 10:02:00,33.0,21.0,30.54,SE,130,0.0,3.0,61,-99.99,,,-99.99,,2013-11-13 17:02:00,
2013-11-13 10:12:00,34.0,21.0,30.53,ESE,110,0.0,3.0,60,-99.99,,,-99.99,,2013-11-13 17:12:00,
2013-11-13 10:17:00,34.0,21.0,30.53,ESE,120,0.0,6.0,58,-99.99,,,-99.99,,2013-11-13 17:17:00,
2013-11-13 10:22:00,35.0,21.0,30.53,SE,140,0.0,6.0,58,-99.99,,,-99.99,,2013-11-13 17:22:00,
2013-11-13 10:32:00,35.0,21.0,30.52,ESE,120,0.0,7.0,56,-99.99,,,-99.99,,2013-11-13 17:32:00,
2013-11-13 10:37:00,36.0,21.0,30.52,ESE,120,0.0,0.0,55,-99.99,,,-99.99,,2013-11-13 17:37:00,
2013-11-13 10:42:00,37.0,21.0,30.52,SE,130,0.0,5.0,54,-99.99,,,-99.99,,2013-11-13 17:42:00,
2013-11-13 10:47:00,37.0,21.0,30.52,East,80,0.0,6.0,53,-99.99,,,-99.99,,2013-11-13 17:47:00,
2013-11-13 10:57:00,39.0,22.0,30.51,ESE,110,4.0,7.0,51,-99.99,,,-99.99,,2013-11-13 17:57:00,
2013-11-13 11:07:00,40.0,22.0,30.50,South,170,0.0,10.0,48,-99.99,,,-99.99,,2013-11-13 18:07:00,
2013-11-13 11:17:00,42.0,22.0,30.49,South,170,8.0,9.0,45,-99.99,,,-99.99,,2013-11-13 18:17:00,
2013-11-13 11:27:00,42.0,22.0,30.49,SSE,150,11.0,11.0,44,-99.99,,,-99.99,,2013-11-13 18:27:00,
2013-11-13 11:32:00,43.0,22.0,30.48,SSE,160,5.0,11.0,43,-99.99,,,-99.99,,2013-11-13 18:32:00,
2013-11-13 11:42:00,44.0,22.0,30.48,ESE,120,5.0,12.0,42,-99.99,,,-99.99,,2013-11-13 18:42:00,
2013-11-13 11:52:00,44.0,22.0,30.47,South,170,10.0,10.0,41,-99.99,,,-99.99,,2013-11-13 18:52:00,
2013-11-13 11:57:00,45.0,22.0,30.47,South,170,9.0,10.0,41,-99.99,,,-99.99,,2013-11-13 18:57:00,
2013-11-13 12:02:00,45.0,22.0,30.47,SE,140,7.0,10.0,41,-99.99,,,-99.99,,2013-11-13 19:02:00,
2013-11-13 12:07:00,45.0,22.0,30.46,SE,140,8.0,10.0,40,-99.99,,,-99.99,,2013-11-13 19:07:00,
2013-11-13 12:17:00,45.0,22.0,30.46,SSE,160,10.0,10.0,40,-99.99,,,-99.99,,2013-11-13 19:17:00,
2013-11-13 12:27:00,45.0,22.0,30.45,SSE,160,8.0,10.0,40,-99.99,,,-99.99,,2013-11-13 19:27:00,
2013-11-13 12:32:00,45.0,22.0,30.45,SSE,150,5.0,9.0,40,-99.99,,,-99.99,,2013-11-13 19:32:00,
2013-11-13 12:37:00,46.0,23.0,30.45,SSE,150,5.0,8.0,40,-99.99,,,-99.99,,2013-11-13 19:37:00,
2013-11-13 12:42:00,46.0,22.0,30.44,ESE,120,3.0,8.0,39,-99.99,,,-99.99,,2013-11-13 19:42:00,
2013-11-13 12:52:00,46.0,22.0,30.43,South,180,6.0,6.0,38,-99.99,,,-99.99,,2013-11-13 19:52:00,
2013-11-13 12:57:00,47.0,22.0,30.43,South,170,0.0,5.0,38,-99.99,,,-99.99,,2013-11-13 19:57:00,
2013-11-13 13:07:00,47.0,22.0,30.42,South,170,0.0,2.0,38,-99.99,,,-99.99,,2013-11-13 20:07:00,
2013-11-13 13:17:00,49.0,23.0,30.42,NW,320,0.0,8.0,36,-99.99,,,-99.99,,2013-11-13 20:17:00,
2013-11-13 13:22:00,49.0,23.0,30.42,West,260,7.0,11.0,35,-99.99,,,-99.99,,2013-11-13 20:22:00,
2013-11-13 13:27:00,50.0,22.0,30.41,NNE,20,12.0,12.0,33,-99.99,,,-99.99,,2013-11-13 20:27:00,
2013-11-13 13:32:00,50.0,21.0,30.41,North,0,8.0,12.0,32,-99.99,,,-99.99,,2013-11-13 20:32:00,
2013-11-13 13:37:00,50.0,21.0,30.41,North,10,11.0,18.0,32,-99.99,,,-99.99,,2013-11-13 20:37:00,
2013-11-13 13:42:00,50.0,21.0,30.40,NW,310,4.0,13.0,32,-99.99,,,-99.99,,2013-11-13 20:42:00,
2013-11-13 13:47:00,50.0,21.0,30.40,NW,320,10.0,14.0,32,-99.99,,,-99.99,,2013-11-13 20:47:00,
2013-11-13 13:52:00,50.0,20.0,30.40,NNE,20,6.0,14.0,32,-99.99,,,-99.99,,2013-11-13 20:52:00,
2013-11-13 13:57:00,49.0,21.0,30.40,North,0,3.0,7.0,32,-99.99,,,-99.99,,2013-11-13 20:57:00,
2013-11-13 14:02:00,50.0,21.0,30.40,WNW,300,11.0,11.0,32,-99.99,,,-99.99,,2013-11-13 21:02:00,
2013-11-13 14:07:00,50.0,20.0,30.40,North,0,7.0,13.0,31,-99.99,,,-99.99,,2013-11-13 21:07:00,
2013-11-13 14:12:00,50.0,20.0,30.39,West,270,8.0,8.0,31,-99.99,,,-99.99,,2013-11-13 21:12:00,
2013-11-13 14:17:00,50.0,20.0,30.39,WNW,290,3.0,12.0,31,-99.99,,,-99.99,,2013-11-13 21:17:00,
2013-11-13 14:22:00,50.0,21.0,30.39,NW,310,9.0,12.0,32,-99.99,,,-99.99,,2013-11-13 21:22:00,
2013-11-13 14:32:00,50.0,21.0,30.39,NNW,330,5.0,10.0,33,-99.99,,,-99.99,,2013-11-13 21:32:00,
2013-11-13 14:37:00,50.0,21.0,30.38,North,0,0.0,11.0,32,-99.99,,,-99.99,,2013-11-13 21:37:00,
2013-11-13 14:42:00,50.0,21.0,30.39,NNW,340,11.0,14.0,32,-99.99,,,-99.99,,2013-11-13 21:42:00,
2013-11-13 14:47:00,50.0,21.0,30.38,NNW,330,12.0,15.0,32,-99.99,,,-99.99,,2013-11-13 21:47:00,
2013-11-13 14:52:00,50.0,21.0,30.38,NNW,340,12.0,15.0,32,-99.99,,,-99.99,,2013-11-13 21:52:00,
2013-11-13 14:57:00,49.0,20.0,30.38,NNW,340,14.0,15.0,32,-99.99,,,-99.99,,2013-11-13 21:57:00,
2013-11-13 15:07:00,49.0,21.0,30.39,North,350,9.0,14.0,33,-99.99,,,-99.99,,2013-11-13 22:07:00,
2013-11-13 15:17:00,49.0,22.0,30.39,NNW,340,8.0,10.0,34,-99.99,,,-99.99,,2013-11-13 22:17:00,
2013-11-13 15:22:00,49.0,21.0,30.39,NNW,330,6.0,10.0,34,-99.99,,,-99.99,,2013-11-13 22:22:00,
2013-11-13 15:32:00,49.0,22.0,30.39,North,350,8.0,9.0,34,-99.99,,,-99.99,,2013-11-13 22:32:00,
2013-11-13 15:42:00,48.0,22.0,30.38,NNW,340,6.0,7.0,36,-99.99,,,-99.99,,2013-11-13 22:42:00,
2013-11-13 15:47:00,48.0,22.0,30.38,WNW,290,4.0,9.0,36,-99.99,,,-99.99,,2013-11-13 22:47:00,
2013-11-13 15:52:00,47.0,22.0,30.38,WNW,290,4.0,8.0,37,-99.99,,,-99.99,,2013-11-13 22:52:00,
2013-11-13 15:57:00,47.0,23.0,30.38,WNW,290,5.0,5.0,38,-99.99,,,-99.99,,2013-11-13 22:57:00,
2013-11-13 16:02:00,47.0,23.0,30.37,NNW,330,6.0,7.0,38,-99.99,,,-99.99,,2013-11-13 23:02:00,
2013-11-13 16:07:00,47.0,23.0,30.37,West,280,0.0,6.0,39,-99.99,,,-99.99,,2013-11-13 23:07:00,
2013-11-13 16:12:00,47.0,23.0,30.37,WNW,290,3.0,6.0,40,-99.99,,,-99.99,,2013-11-13 23:12:00,
2013-11-13 16:22:00,46.0,23.0,30.37,North,0,0.0,5.0,41,-99.99,,,-99.99,,2013-11-13 23:22:00,
2013-11-13 16:27:00,45.0,23.0,30.37,NNW,340,4.0,6.0,42,-99.99,,,-99.99,,2013-11-13 23:27:00,
2013-11-13 16:37:00,44.0,23.0,30.37,NNE,30,4.0,6.0,43,-99.99,,,-99.99,,2013-11-13 23:37:00,
2013-11-13 16:42:00,44.0,23.0,30.37,North,350,6.0,6.0,44,-99.99,,,-99.99,,2013-11-13 23:42:00,
2013-11-13 16:47:00,44.0,23.0,30.36,North,0,5.0,6.0,44,-99.99,,,-99.99,,2013-11-13 23:47:00,
2013-11-13 16:52:00,43.0,23.0,30.36,North,0,4.0,6.0,45,-99.99,,,-99.99,,2013-11-13 23:52:00,
2013-11-13 16:57:00,43.0,23.0,30.36,NE,40,3.0,6.0,45,-99.99,,,-99.99,,2013-11-13 23:57:00,
2013-11-13 17:07:00,42.0,22.0,30.36,NNE,20,0.0,6.0,45,-99.99,,,-99.99,,2013-11-14 00:07:00,
2013-11-13 17:12:00,42.0,22.0,30.36,NNE,20,5.0,6.0,45,-99.99,,,-99.99,,2013-11-14 00:12:00,
2013-11-13 17:22:00,41.0,22.0,30.36,North,10,0.0,5.0,47,-99.99,,,-99.99,,2013-11-14 00:22:00,
2013-11-13 17:32:00,41.0,22.0,30.36,NW,320,5.0,7.0,48,-99.99,,,-99.99,,2013-11-14 00:32:00,
2013-11-13 17:42:00,41.0,22.0,30.35,North,0,0.0,4.0,48,-99.99,,,-99.99,,2013-11-14 00:42:00,
2013-11-13 17:52:00,40.0,24.0,30.35,North,0,0.0,0.0,52,-99.99,,,-99.99,,2013-11-14 00:52:00,
2013-11-13 17:57:00,40.0,24.0,30.35,North,0,0.0,0.0,52,-99.99,,,-99.99,,2013-11-14 00:57:00,
2013-11-13 18:02:00,40.0,23.0,30.34,North,0,0.0,0.0,52,-99.99,,,-99.99,,2013-11-14 01:02:00,
2013-11-13 18:07:00,40.0,24.0,30.34,North,0,0.0,0.0,52,-99.99,,,-99.99,,2013-11-14 01:07:00,
2013-11-13 18:17:00,39.0,25.0,30.34,North,0,0.0,0.0,55,-99.99,,,-99.99,,2013-11-14 01:17:00,
2013-11-13 18:22:00,39.0,24.0,30.34,North,0,0.0,0.0,55,-99.99,,,-99.99,,2013-11-14 01:22:00,
2013-11-13 18:32:00,39.0,25.0,30.34,North,0,0.0,0.0,57,-99.99,,,-99.99,,2013-11-14 01:32:00,
2013-11-13 18:42:00,38.0,25.0,30.34,North,0,0.0,5.0,58,-99.99,,,-99.99,,2013-11-14 01:42:00,
2013-11-13 18:47:00,38.0,25.0,30.34,NNW,340,0.0,4.0,58,-99.99,,,-99.99,,2013-11-14 01:47:00,
2013-11-13 18:52:00,38.0,25.0,30.34,North,350,0.0,2.0,60,-99.99,,,-99.99,,2013-11-14 01:52:00,
2013-11-13 18:57:00,37.0,25.0,30.34,NNE,30,0.0,4.0,60,-99.99,,,-99.99,,2013-11-14 01:57:00,
2013-11-13 19:02:00,37.0,25.0,30.33,NNE,30,3.0,4.0,61,-99.99,,,-99.99,,2013-11-14 02:02:00,
2013-11-13 19:12:00,36.0,25.0,30.33,NNE,20,4.0,7.0,63,-99.99,,,-99.99,,2013-11-14 02:12:00,
2013-11-13 19:17:00,36.0,24.0,30.33,NW,320,6.0,8.0,63,-99.99,,,-99.99,,2013-11-14 02:17:00,
2013-11-13 19:22:00,36.0,24.0,30.33,NNW,340,7.0,8.0,63,-99.99,,,-99.99,,2013-11-14 02:22:00,
2013-11-13 19:27:00,35.0,24.0,30.33,North,350,7.0,8.0,64,-99.99,,,-99.99,,2013-11-14 02:27:00,
2013-11-13 19:37:00,35.0,24.0,30.33,NNW,340,5.0,8.0,65,-99.99,,,-99.99,,2013-11-14 02:37:00,
2013-11-13 19:47:00,34.0,24.0,30.32,NE,40,4.0,4.0,66,-99.99,,,-99.99,,2013-11-14 02:47:00,
2013-11-13 19:57:00,34.0,24.0,30.32,ENE,60,0.0,5.0,66,-99.99,,,-99.99,,2013-11-14 02:57:00,
2013-11-13 20:02:00,34.0,24.0,30.32,NE,40,0.0,4.0,66,-99.99,,,-99.99,,2013-11-14 03:02:00,
2013-11-13 20:07:00,34.0,24.0,30.31,NE,40,3.0,5.0,65,-99.99,,,-99.99,,2013-11-14 03:07:00,
2013-11-13 20:12:00,34.0,24.0,30.31,North,10,0.0,3.0,66,-99.99,,,-99.99,,2013-11-14 03:12:00,
2013-11-13 20:22:00,34.0,24.0,30.30,North,350,7.0,7.0,67,-99.99,,,-99.99,,2013-11-14 03:22:00,
2013-11-13 20:32:00,33.0,24.0,30.30,NNE,20,5.0,6.0,68,-99.99,,,-99.99,,2013-11-14 03:32:00,
2013-11-13 20:37:00,33.0,24.0,30.30,NE,50,3.0,6.0,69,-99.99,,,-99.99,,2013-11-14 03:37:00,
2013-11-13 20:42:00,32.0,24.0,30.29,NNE,20,0.0,6.0,69,-99.99,,,-99.99,,2013-11-14 03:42:00,
2013-11-13 20:52:00,33.0,24.0,30.29,NNW,330,4.0,6.0,70,-99.99,,,-99.99,,2013-11-14 03:52:00,
2013-11-13 21:02:00,32.0,24.0,30.29,North,10,4.0,8.0,71,-99.99,,,-99.99,,2013-11-14 04:02:00,
2013-11-13 21:07:00,32.0,24.0,30.29,North,0,5.0,6.0,72,-99.99,,,-99.99,,2013-11-14 04:07:00,
2013-11-13 21:12:00,32.0,24.0,30.29,NNE,30,5.0,7.0,73,-99.99,,,-99.99,,2013-11-14 04:12:00,
2013-11-13 21:17:00,32.0,24.0,30.29,NNE,30,7.0,7.0,74,-99.99,,,-99.99,,2013-11-14 04:17:00,
2013-11-13 21:27:00,31.0,24.0,30.29,NNE,20,5.0,6.0,74,-99.99,,,-99.99,,2013-11-14 04:27:00,
2013-11-13 21:37:00,31.0,24.0,30.29,NNE,30,3.0,6.0,74,-99.99,,,-99.99,,2013-11-14 04:37:00,
2013-11-13 21:42:00,31.0,24.0,30.28,NE,40,0.0,6.0,75,-99.99,,,-99.99,,2013-11-14 04:42:00,
2013-11-13 21:47:00,31.0,24.0,30.28,NE,40,0.0,0.0,75,-99.99,,,-99.99,,2013-11-14 04:47:00,
2013-11-13 21:57:00,30.0,24.0,30.28,NNW,330,7.0,7.0,78,-99.99,,,-99.99,,2013-11-14 04:57:00,
2013-11-13 22:02:00,30.0,24.0,30.28,NNW,330,5.0,7.0,77,-99.99,,,-99.99,,2013-11-14 05:02:00,
2013-11-13 22:07:00,30.0,24.0,30.28,NNE,20,0.0,5.0,78,-99.99,,,-99.99,,2013-11-14 05:07:00,
2013-11-13 22:12:00,30.0,24.0,30.28,NNW,340,5.0,5.0,79,-99.99,,,-99.99,,2013-11-14 05:12:00,
2013-11-13 22:17:00,29.0,24.0,30.28,NW,310,0.0,5.0,79,-99.99,,,-99.99,,2013-11-14 05:17:00,
2013-11-13 22:22:00,29.0,24.0,30.27,North,350,3.0,3.0,80,-99.99,,,-99.99,,2013-11-14 05:22:00,
2013-11-13 22:32:00,29.0,24.0,30.27,NNE,20,4.0,5.0,80,-99.99,,,-99.99,,2013-11-14 05:32:00,
2013-11-13 22:37:00,29.0,24.0,30.27,North,10,5.0,5.0,79,-99.99,,,-99.99,,2013-11-14 05:37:00,
2013-11-13 22:42:00,29.0,24.0,30.27,NNW,330,5.0,6.0,79,-99.99,,,-99.99,,2013-11-14 05:42:00,
2013-11-13 22:47:00,29.0,24.0,30.27,West,280,0.0,6.0,81,-99.99,,,-99.99,,2013-11-14 05:47:00,
2013-11-13 22:57:00,29.0,24.0,30.27,NNE,20,4.0,5.0,80,-99.99,,,-99.99,,2013-11-14 05:57:00,
2013-11-13 23:02:00,29.0,24.0,30.27,North,10,0.0,5.0,80,-99.99,,,-99.99,,2013-11-14 06:02:00,
2013-11-13 23:07:00,30.0,24.0,30.27,North,10,0.0,0.0,80,-99.99,,,-99.99,,2013-11-14 06:07:00,
2013-11-13 23:12:00,29.0,24.0,30.26,NE,50,0.0,5.0,79,-99.99,,,-99.99,,2013-11-14 06:12:00,
2013-11-13 23:17:00,30.0,24.0,30.26,NNW,330,0.0,5.0,79,-99.99,,,-99.99,,2013-11-14 06:17:00,
2013-11-13 23:22:00,30.0,24.0,30.26,NNW,330,0.0,0.0,79,-99.99,,,-99.99,,2013-11-14 06:22:00,
2013-11-13 23:27:00,30.0,25.0,30.26,NNW,330,0.0,0.0,82,-99.99,,,-99.99,,2013-11-14 06:27:00,
2013-11-13 23:37:00,29.0,24.0,30.26,NW,320,8.0,9.0,82,-99.99,,,-99.99,,2013-11-14 06:37:00,
2013-11-13 23:42:00,29.0,24.0,30.26,NNW,330,6.0,8.0,82,-99.99,,,-99.99,,2013-11-14 06:42:00,
2013-11-13 23:47:00,29.0,24.0,30.26,North,0,6.0,6.0,83,-99.99,,,-99.99,,2013-11-14 06:47:00,
2013-11-13 23:52:00,28.0,24.0,30.26,North,0,6.0,8.0,83,-99.99,,,-99.99,,2013-11-14 06:52:00,